Location: Sternwarte ZA, Rosenfeld-Brittheim
(48.2889°N, 8.6789°E)
Time: 08:45:13
(UTC+02:00)

ISS - Pass Details

Date: 23 October 2020
Orbit: 418 x 419 km, 51.6° (Epoch: 19 October)

Event Time Altitude Azimuth Distance (km) Brightness Sun altitude
Exits shadow 06:49:35 -1° 210° (SSW) 2,416 -0.2 -11.9°
Rises 06:49:46 0° 209° (SSW) 2,349 -0.2 -11.9°
Reaches altitude 10° 06:52:07 10° 194° (SSW) 1,490 -1.1 -11.5°
Maximum altitude 06:54:48 22° 141° (SE) 953 -1.4 -11.1°
Drops below altitude 10° 06:57:30 10° 87° (E) 1,497 0.6 -10.6°
Sets 06:59:52 0° 72° (ENE) 2,365 1.4 -10.2°
